Weather History for Kingsville NAS, TX

Change the Weather History Date:

Thursday, November 8, 2012

  Actual Average Record
Temperature  
Mean Temperature 72 °F -  
Max Temperature 87 °F 75 °F 88 °F (2011)
Min Temperature 57 °F 56 °F 45 °F (1996)
Cooling Degree Days 7    
Growing Degree Days 22 (Base 50)    
Moisture  
Dew Point 61 °F    
Average Humidity 70    
Maximum Humidity 96    
Minimum Humidity 40    
Precipitation  
Precipitation 0.00 in - - ()
Sea Level Pressure  
Sea Level Pressure 30.06 in    
Wind  
Wind Speed 10 mph (SSE)    
Max Wind Speed 23 mph    
Max Gust Speed 31 mph    
Visibility 10 miles    
Events      
Averages and records for this station are not official NWS values.
T = Trace of Precipitation, MM = Missing Value Source: NWS Daily Summary

Daily Weather History Graph

Daily Weather History Graph

Search for Another Location

Airport:

Trip Planner

Search our weather history database for the weather conditions in past years. The results will help you decide how hot, cold, wet, or windy it might be!

Date:

Astronomy

Nov. 08, 2012 Rise Set
Actual Time 6:47 AM CST 5:42 PM CST
Civil Twilight 6:22 AM CST 6:06 PM CST
Nautical Twilight 5:54 AM CST 6:34 PM CST
Astronomical Twilight 5:27 AM CST 7:02 PM CST
Moon 1:13 AM CST (11/8) 1:57 PM CST (11/8)
Length of Visible Light 11h 44m
Length of Day
10h 55m
Waning Crescent, 32% of the Moon is Illuminated
Nov 8
Waning Crescent
Nov 13
New
Nov 20
First Quarter
Nov 28
Full
Dec 6
Last Quarter

Hourly Weather History & Observations

Time (CST) Temp. Heat Index Dew Point Humidity Pressure Visibility Wind Dir Wind Speed Gust Speed Precip Events Conditions
12:56 AM 60.1 °F - 57.0 °F 90% 30.08 in 10.0 mi South 4.6 mph - N/A   Clear
1:56 AM 59.0 °F - 55.9 °F 90% 30.08 in 10.0 mi South 5.8 mph - N/A   Clear
2:56 AM 57.9 °F - 55.9 °F 93% 30.07 in 10.0 mi South 3.5 mph - N/A   Clear
3:56 AM 57.0 °F - 55.0 °F 93% 30.06 in 9.0 mi South 5.8 mph - N/A   Clear
4:56 AM 59.0 °F - 57.0 °F 93% 30.07 in 9.0 mi South 6.9 mph - N/A   Clear
5:56 AM 57.9 °F - 55.9 °F 93% 30.08 in 9.0 mi SSE 3.5 mph - N/A   Clear
6:56 AM 57.0 °F - 55.9 °F 96% 30.09 in 6.0 mi Calm Calm - N/A   Partly Cloudy
7:56 AM 64.0 °F - 61.0 °F 90% 30.11 in 7.0 mi SSE 5.8 mph - N/A   Partly Cloudy
8:56 AM 75.0 °F - 63.0 °F 66% 30.13 in 9.0 mi South 11.5 mph - N/A   Partly Cloudy
9:56 AM 80.1 °F 81.5 °F 63.0 °F 56% 30.13 in 10.0 mi SSE 17.3 mph 27.6 mph N/A   Scattered Clouds
10:56 AM 84.0 °F 84.4 °F 61.0 °F 46% 30.12 in 10.0 mi SSE 17.3 mph 25.3 mph N/A   Scattered Clouds
11:56 AM 86.0 °F 85.7 °F 60.1 °F 41% 30.08 in 10.0 mi SE 16.1 mph - N/A   Scattered Clouds
12:56 PM 86.0 °F 85.4 °F 59.0 °F 40% 30.04 in 10.0 mi ESE 20.7 mph 27.6 mph N/A   Scattered Clouds
1:56 PM 87.1 °F 86.7 °F 60.1 °F 40% 30.01 in 10.0 mi SE 17.3 mph 26.5 mph N/A   Scattered Clouds
2:56 PM 86.0 °F 87.3 °F 64.0 °F 48% 30.00 in 10.0 mi SE 20.7 mph 28.8 mph N/A   Scattered Clouds
3:56 PM 82.9 °F 84.4 °F 64.0 °F 53% 30.00 in 10.0 mi SE 23.0 mph 31.1 mph N/A   Scattered Clouds
4:56 PM 80.1 °F 81.7 °F 64.0 °F 58% 30.00 in 10.0 mi SE 23.0 mph 31.1 mph N/A   Scattered Clouds
5:56 PM 77.0 °F - 64.0 °F 64% 30.01 in 10.0 mi SE 16.1 mph 26.5 mph N/A   Clear
6:56 PM 75.9 °F - 64.0 °F 67% 30.03 in 10.0 mi SE 18.4 mph 25.3 mph N/A   Clear
7:56 PM 75.0 °F - 64.0 °F 69% 30.05 in 10.0 mi SE 15.0 mph 20.7 mph N/A   Clear
8:56 PM 73.0 °F - 63.0 °F 71% 30.05 in 10.0 mi SSE 9.2 mph - N/A   Clear
9:56 PM 71.1 °F - 63.0 °F 75% 30.05 in 10.0 mi SE 8.1 mph - N/A   Clear
10:56 PM 70.0 °F - 63.0 °F 78% 30.05 in 10.0 mi SE 8.1 mph - N/A   Clear
11:56 PM 70.0 °F - 63.0 °F 78% 30.05 in 10.0 mi SSE 10.4 mph - N/A   Clear